London, United Kingdom

1:33 AM BST on August 28, 2016 (GMT +0100)
Heathrow

Weather History for EGLL - October, 2012

Change the Weather History Date:

Monday, October 22, 2012

  Actual Average Record
Temperature  
Mean Temperature 56 °F -  
Max Temperature 59 °F 52 °F 65 °F (2013)
Min Temperature 52 °F 41 °F 37 °F (1997)
Degree Days  
Heating Degree Days 10    
Growing Degree Days 6 (Base 50)    
Moisture  
Dew Point 56 °F    
Average Humidity 96    
Maximum Humidity 100    
Minimum Humidity 93    
Precipitation  
Precipitation 0.00 in - - ()
Sea Level Pressure  
Sea Level Pressure 30.12 in    
Wind  
Wind Speed 5 mph ()    
Max Wind Speed 7 mph    
Max Gust Speed -    
Visibility 1.6 miles    
Events Fog , Rain    
Averages and records for this station are not official NWS values.
T = Trace of Precipitation, MM = Missing Value Source: Averaged Metar Reports

Daily Weather History Graph

Daily Weather History Graph

Search for Another Location

Airport or City:

Trip Planner

Search our weather history database for the weather conditions in past years. The results will help you decide how hot, cold, wet, or windy it might be!

Date:

Astronomy

Oct. 22, 2012 Rise Set
Actual Time 7:38 AM BST 5:53 PM BST
Civil Twilight 7:04 AM BST 6:27 PM BST
Nautical Twilight 6:25 AM BST 7:06 PM BST
Astronomical Twilight 5:46 AM BST 7:44 PM BST
Moon 2:36 PM BST (10/22) No Moon Set
Length of Visible Light 11h 23m
Length of Day
10h 15m
First Quarter, 53% of the Moon is Illuminated
Oct 22
First Quarter
Oct 29
Full
Nov 7
Last Quarter
Nov 13
New
Nov 20
First Quarter

Hourly Weather History & Observations

Time (BST) Temp. Dew Point Humidity Pressure Visibility Wind Dir Wind Speed Gust Speed Precip Events Conditions
12:20 AM 53.6 °F 51.8 °F 94% 30.04 in 5.0 mi NE 5.8 mph - N/A   Mostly Cloudy
12:50 AM 53 °F 52 °F 95% 30.06 in 12 mi NE 6.9 mph - - Rain Drizzle
12:50 AM 53.6 °F 51.8 °F 94% 30.04 in 5.0 mi NE 6.9 mph - N/A   Mostly Cloudy
1:20 AM 53.6 °F 51.8 °F 94% 30.06 in 3.7 mi NE 5.8 mph - N/A   Overcast
1:50 AM 53.6 °F 51.8 °F 94% 30.04 in - NNE 5.8 mph - N/A   Mostly Cloudy
2:20 AM 53.6 °F 51.8 °F 94% 30.06 in 1.6 mi ENE 5.8 mph - N/A   Mostly Cloudy
2:50 AM 53.6 °F 53.6 °F 100% 30.06 in 1.6 mi NE 5.8 mph - N/A   Light Drizzle
3:20 AM 53.6 °F 53.6 °F 100% 30.06 in 1.2 mi NE 5.8 mph - N/A   Light Drizzle
3:50 AM 54 °F 53 °F 96% 30.06 in 0 mi NE 5.8 mph - - Fog Fog
3:50 AM 53.6 °F 53.6 °F 100% 30.06 in 0.6 mi NE 5.8 mph - N/A Fog Light Drizzle
4:20 AM 53.6 °F 53.6 °F 100% 30.06 in - ENE 5.8 mph - N/A Fog Light Drizzle
4:50 AM 53.6 °F 53.6 °F 100% 30.06 in 0.2 mi NE 5.8 mph - N/A Fog Light Drizzle
5:20 AM 53.6 °F 53.6 °F 100% 30.06 in 0.6 mi NE 5.8 mph - N/A Fog Light Drizzle
5:50 AM 53.6 °F 53.6 °F 100% 30.06 in 0.7 mi NE 4.6 mph - N/A   Mostly Cloudy
6:20 AM 53.6 °F 53.6 °F 100% 30.06 in 0.7 mi NE 4.6 mph - N/A   Mostly Cloudy
6:50 AM 55 °F 54 °F 97% 30.07 in 1 mi NE 5.8 mph - -   Mist
6:50 AM 55.4 °F 53.6 °F 94% 30.06 in 0.7 mi ENE 5.8 mph - N/A   Mostly Cloudy
7:20 AM 55.4 °F 53.6 °F 94% 30.06 in 0.9 mi NE 5.8 mph - N/A   Mostly Cloudy
7:50 AM 55.4 °F 53.6 °F 94% 30.09 in 1.0 mi NE 4.6 mph - N/A   Mostly Cloudy
8:20 AM 55.4 °F 55.4 °F 100% 30.09 in 0.9 mi NE 4.6 mph - N/A   Mostly Cloudy
8:50 AM 55.4 °F 55.4 °F 100% 30.09 in 0.7 mi ENE 5.8 mph - N/A   Mostly Cloudy
9:20 AM 55.4 °F 55.4 °F 100% 30.09 in 0.7 mi NE 5.8 mph - N/A   Overcast
9:50 AM 57.2 °F 55.4 °F 94% 30.12 in 0.6 mi ENE 5.8 mph - N/A Fog Fog
10:20 AM 57.2 °F 55.4 °F 94% 30.12 in 0.9 mi ENE 5.8 mph - N/A   Mostly Cloudy
10:50 AM 57.2 °F 57.2 °F 100% 30.12 in 1.0 mi ENE 5.8 mph - N/A   Mostly Cloudy
11:20 AM 57.2 °F 57.2 °F 100% 30.12 in 0.9 mi ENE 4.6 mph - N/A   Mostly Cloudy
11:50 AM 57.2 °F 57.2 °F 100% 30.12 in 0.9 mi ENE 5.8 mph - N/A   Mostly Cloudy
12:20 PM 57.2 °F 57.2 °F 100% 30.12 in 1.2 mi NE 5.8 mph - N/A   Mostly Cloudy
12:50 PM 58 °F 57 °F 94% 30.13 in 2 mi NE 6.9 mph - -   Mist
12:50 PM 57.2 °F 57.2 °F 100% 30.12 in 1.1 mi ENE 6.9 mph - N/A   Mostly Cloudy
1:20 PM 57.2 °F 57.2 °F 100% 30.12 in 0.9 mi ENE 5.8 mph - N/A   Mostly Cloudy
1:50 PM 57.2 °F 57.2 °F 100% 30.12 in 1.1 mi ENE 5.8 mph - N/A   Mostly Cloudy
2:20 PM 59.0 °F 57.2 °F 94% 30.12 in 1.2 mi ENE 6.9 mph - N/A   Mostly Cloudy
2:50 PM 59.0 °F 57.2 °F 94% 30.12 in 1.2 mi ENE 5.8 mph - N/A   Mostly Cloudy
3:20 PM 59.0 °F 57.2 °F 94% 30.15 in 1.0 mi ENE 5.8 mph - N/A   Mostly Cloudy
3:50 PM 59 °F 58 °F 93% 30.15 in 2 mi NE 6.9 mph - -   Mist
3:50 PM 59.0 °F 57.2 °F 94% 30.15 in 1.0 mi ENE 5.8 mph - N/A   Mostly Cloudy
4:20 PM 59.0 °F 57.2 °F 94% 30.15 in 1.1 mi ENE 5.8 mph - N/A   Mostly Cloudy
4:50 PM 59.0 °F 57.2 °F 94% 30.15 in 0.9 mi NE 4.6 mph - N/A   Mostly Cloudy
5:20 PM 59.0 °F 57.2 °F 94% 30.15 in 0.9 mi ENE 4.6 mph - N/A   Mostly Cloudy
5:50 PM 59.0 °F 57.2 °F 94% 30.15 in 0.9 mi ENE 4.6 mph - N/A   Mostly Cloudy
6:20 PM 59.0 °F 57.2 °F 94% 30.18 in 0.9 mi NE 4.6 mph - N/A   Mostly Cloudy
6:50 PM 59 °F 58 °F 96% 30.18 in 1 mi NE 4.6 mph - -   Mist
6:50 PM 59.0 °F 57.2 °F 94% 30.18 in 0.9 mi Variable 3.5 mph - N/A   Mostly Cloudy
7:20 PM 59.0 °F 57.2 °F 94% 30.18 in 1.2 mi Variable 3.5 mph - N/A   Mostly Cloudy
7:50 PM 59.0 °F 57.2 °F 94% 30.18 in 1.2 mi NE 5.8 mph - N/A   Mostly Cloudy
8:20 PM 59.0 °F 57.2 °F 94% 30.18 in 1.6 mi ENE 4.6 mph - N/A   Mostly Cloudy
8:50 PM 59.0 °F 57.2 °F 94% 30.18 in 1.9 mi ENE 5.8 mph - N/A   Mostly Cloudy
9:20 PM 59.0 °F 57.2 °F 94% 30.21 in 1.9 mi ENE 4.6 mph - N/A   Mostly Cloudy
9:50 PM 58 °F 58 °F 98% 30.21 in 3 mi ENE 4.6 mph - -   Mist
9:50 PM 59.0 °F 57.2 °F 94% 30.21 in 2.2 mi East 5.8 mph - N/A   Mostly Cloudy
10:20 PM 59.0 °F 57.2 °F 94% 30.21 in 2.2 mi ENE 5.8 mph - N/A   Mostly Cloudy
10:50 PM 59.0 °F 57.2 °F 94% 30.21 in 2.2 mi East 5.8 mph - N/A   Mostly Cloudy
11:20 PM 57.2 °F 57.2 °F 100% 30.21 in 1.6 mi NE 4.6 mph - N/A   Mostly Cloudy
11:50 PM 57.2 °F 57.2 °F 100% 30.21 in 1.4 mi ENE 5.8 mph - N/A   Mostly Cloudy